{"data":{"norad_id":68986,"intl_designator":"2026-100G","name":"IRIDE-MS2-HEO-14","alt_names":[],"object_type":"PAYLOAD","status":"ACTIVE","operator":null,"country":"IT","launch_date":"2026-05-03","launch_site_code":"AFWTR","launch_vehicle":null,"mission":null,"orbit_class":"UNKNOWN","rcs_meters":null,"size_class":null,"mass_kg":null,"dimensions":null,"purposes":[],"wikipedia_slug":null,"has_3d_model":false,"image_url":null,"decayed_at":null,"tle_current":{"epoch":"2026-05-25T03:11:04.898112Z","epoch_age_seconds":70540,"freshness":"FRESH","line1":"1 68986U 26100G   26145.13269558  .00001384  00000+0  14292-3 0  9999","line2":"2 68986  97.7387  43.0192 0001743 143.4784 216.6554 14.91755048  3269","mean_motion":14.91755048,"eccentricity":0.0001743,"inclination_deg":97.7387,"raan_deg":43.0192,"arg_perigee_deg":143.4784,"mean_anomaly_deg":216.6554,"bstar":0.00014292,"rev_number":326,"period_min":96.53059340611,"perigee_km":591.24805556885,"apogee_km":593.67800673971,"semimajor_km":6970.6000311543,"source":"CELESTRAK","updated_at":"2026-05-25T13:38:08.808093Z"}}}